Terminal Aerodrome Forecast
Issued by NWS Northern Indiana

Home | Current Version | Previous Version | Graphics & Text | Print | Product List | Glossary On
Versions: 1 2 3 4 5 6 7 8 9 10 11 12 13
000
FTUS43 KIWX 220534
TAFFWA
TAF
KFWA 220534Z 2206/2306 26003KT P6SM SCT080
     FM221500 25003KT P6SM SCT050=

USA.gov is the U.S. government's official web portal to all federal, state and local government web resources and services.